Weather in Turnov

Czech Republic     50°35′27″N   15°09′00″E
temp.,
°C
wind,
m/s
gust,
m/s
humid.,
%
clouds,
%
prec.,
mm/h
press.,
hPa
HPBL,
m
21 april, wed
wed2123:00+6nne118748 0.1 101510
02:00+5nne008923 0.1 101510
05:00+4nnw11925 0.0 101410
08:00+7wsw11845 0.0 1015155
11:00+13w34655 0.3 1014996
14:00+15w464164 0.6 10132321
17:00+15nw454389 0.0 10112063
20:00+9nnw237242 0.0 101336
22 april, thu
thu2223:00+5nnw22833 0.0 101519
02:00+4nnw35915 0.0 1016107
05:00+4nw51085100 0.0 1017656
08:00+3nw5961100 0.0 1019821
11:00+7wnw694792 0.0 10191485
14:00+9wnw71139100 0.0 10182593
17:00+9nw71047100 0.0 10192442
20:00+5nw4106991 0.3 1020496
23 april, fri
fri2323:00+3w398137 0.0 1021340
02:000wnw26945 0.1 1022149
05:00−1wnw279716 0.0 1023222
08:00+3wnw61068100 0.0 10231289
11:00+3wnw61173100 0.1 10251193
14:00+5wnw71168100 0.3 10251468
17:00+8nw6116189 0.4 10241767
20:00+4nw227334 0.7 102525
24 april, sat
sat2423:00+1nnw228718 0.0 102714
02:000nnw228613 0.0 102711
05:00−1nnw118476 0.0 102710
08:00+4w267926 0.0 1027440
11:00+7wnw565950 0.0 10261266
14:00+9nw685075 0.1 10241771
17:00+7nw586085 0.1 10241499
20:00+4wnw238259 0.1 102565
25 april, sun
sun2523:00+1n22935 0.0 102619
02:00−1n2292100 0.0 102712
05:00−2nnw238562 0.0 102741
08:00+2nnw37560 0.0 1027612
11:00+6nnw46385 0.0 10271691
14:00+9nnw463413 0.0 10252119
17:00+9nnw463561 0.0 10242201
20:00+3nnw22565 0.0 102412